Regional Weather Roundup
Issued by NWS Charleston, WV

Home | Current Version | Previous Version | Graphics & Text | Print | Product List | Glossary On
Versions: 1 2 3 4 5 6 7 8 9 10 11 12 13 14 15 16 17 18 19 20 21 22 23 24 25 26 27 28 29 30 31 32 33 34 35 36 37 38 39 40 41 42 43 44 45 46 47 48 49 50
000
ASUS41 KRLX 180110
RWRRLX
West Virginia Regional Weather Roundup
National Weather Service Charleston WV
800 PM EST TUE JAN 17 2017

Note: "fair" indicates few or no clouds below 12,000 feet with no
significant weather and/or obstructions to visibility.

WVZ003-180200-
Northern Panhandle of West Virginia

CITY           SKY/WX    TMP DP  RH WIND       PRES   REMARKS
WHEELING       CLOUDY    56  47  71 W10       29.88R
$$

WVZ009-180200-
Northwest West Virginia

CITY           SKY/WX    TMP DP  RH WIND       PRES   REMARKS
PARKERSBURG    MOCLDY    56  53  90 W6        29.95R
$$

WVZ006-180200-
Western West Virginia

CITY           SKY/WX    TMP DP  RH WIND       PRES   REMARKS
HUNTINGTON     MOCLDY    62  50  64 W8        29.96R
$$

WVZ015-180200-
West Central West Virginia

CITY           SKY/WX    TMP DP  RH WIND       PRES   REMARKS
CHARLESTON     MOCLDY    63  54  72 SW10      29.95S
$$

WVZ022-031-180200-
North Central West Virginia

CITY           SKY/WX    TMP DP  RH WIND       PRES   REMARKS
CLARKSBURG     CLOUDY    59  55  87 SW13      29.91R
MORGANTOWN     MOCLDY    57  54  89 SW5       29.90R
$$

WVZ025-035-042-045-180200-
Southern West Virginia

CITY           SKY/WX    TMP DP  RH WIND       PRES   REMARKS
BECKLEY        LGT RAIN  56  54  93 W7        30.00F
LOGAN          CLOUDY    59  57  94 W10       29.99S
BLUEFIELD      CLOUDY    56  53  90 W26G32    30.02F
LEWISBURG      CLOUDY    54  53  97 SW5       30.00S
$$

WVZ047-180200-
Northern Mountains of West Virginia

CITY           SKY/WX    TMP DP  RH WIND       PRES   REMARKS
ELKINS         CLOUDY    60  48  64 SW13      29.95S
$$

WVZ052-180200-
Eastern Panhandle of West Virginia

CITY           SKY/WX    TMP DP  RH WIND       PRES   REMARKS
MARTINSBURG    CLOUDY    40  38  93 N7        29.92F FOG
PETERSBURG     CLOUDY    56  49  75 SE3       29.88F
$$




USA.gov is the U.S. government's official web portal to all federal, state and local government web resources and services.